This demonstration page uses our WeatherBlox Daily Observations layout. Learn more.

Hourly Observations for July 19, 2015

Temp ( °F °C ) Dew Point ( °F °C ) Humidity (%) Winds ( mph kmh ) Pressure ( in mb ) Visibility ( mi km ) Precip ( " mm )
12:15 am 00:15 Clear 72 22.1 69 20.3 90 90 N 5 7 29.91 1013 10 16.0934 0 0
12:35 am 00:35 Clear 73 22.5 69 20.5 89 89 N 8 13 29.91 1013 10 16.0934 0 0
12:55 am 00:55 Partly Cloudy with Light Rain 72 22.3 69 20.5 90 90 N 5 7 29.91 1013 10 16.0934 0 0
1:15 am 01:15 Partly Cloudy with Light Drizzle 73 22.6 70 20.9 90 90 W 3 6 29.94 1014 10 16.0934 0 0
1:35 am 01:35 Mostly Cloudy with Light Rain 73 22.7 70 21 90 90 N 8 13 29.91 1013 10 16.0934 0 0
1:55 am 01:55 Mostly Cloudy with Light Drizzle 73 22.7 70 21 90 90 SW 6 9 29.94 1014 10 16.0934 0 0
2:15 am 02:15 Mostly Cloudy with Light Rain 73 23 69 20.6 86 86 W 8 13 29.94 1014 10 16.0934 0 0
2:35 am 02:35 Cloudy with Light Drizzle 73 22.8 70 21 90 90 W 3 6 29.94 1014 10 16.0934 0 0
2:55 am 02:55 Partly Cloudy 73 22.7 69 20.6 88 88 NNW 5 7 29.91 1013 10 16.0934 0 0
3:15 am 03:15 Clear with Nearby Thunderstorms 72 22 69 20.5 91 91 N 3 6 29.88 1012 7 11.26538 0 0
3:35 am 03:35 Clear 71 21.9 69 20.5 92 92 SSE 5 7 29.91 1013 7 11.26538 0 0
3:55 am 03:55 Clear with Light Rain 72 22.2 69 20.8 92 92 Calm 29.88 1012 7 11.26538 0 0
4:15 am 04:15 Clear with Light Rain 71 21.6 69 20.5 93 93 ENE 5 7 29.88 1012 4 6.43736 0 0
4:35 am 04:35 Clear with Mist and Fog 71 21.5 69 20.5 94 94 E 3 6 29.88 1012 5 8.0467 0 0
4:55 am 04:55 Clear with Mist and Fog 71 21.5 69 20.5 94 94 SE 5 7 29.88 1012 5 8.0467 0 0
5:15 am 05:15 Clear with Mist and Fog 70 21.3 68 20.2 93 93 SE 6 9 29.85 1011 5 8.0467 0 0
5:35 am 05:35 Clear with Mist and Fog 70 21.3 68 20.2 93 93 S 3 6 29.88 1012 5 8.0467 0 0
5:55 am 05:55 Clear with Mist and Fog 70 21.1 68 19.9 93 93 NW 6 9 29.88 1012 5 8.0467 0 0
6:15 am 06:15 Clear 71 21.4 68 20 92 92 NNE 6 9 29.91 1013 7 11.26538 0 0
6:35 am 06:35 Sunny with Mist and Fog 69 20.8 67 19.7 93 93 Calm 29.91 1013 5 8.0467 0 0
6:55 am 06:55 Sunny with Mist and Fog 69 20.5 67 19.5 94 94 N 5 7 29.91 1013 2.5 4.02335 0 0
7:15 am 07:15 Sunny with Mist and Fog 69 20.5 67 19.6 95 95 Calm 29.94 1014 2 3.21868 0 0
7:35 am 07:35 Mostly Cloudy with Mist and Fog 69 20.8 68 20 95 95 N 3 6 29.94 1014 1.75 2.816345 0 0
7:55 am 07:55 Cloudy with Mist and Fog 70 21.2 69 20.3 95 95 Calm 29.97 1015 2 3.21868 0 0
8:15 am 08:15 Cloudy with Mist and Fog 71 21.5 69 20.6 95 95 NNE 6 9 29.94 1014 2.5 4.02335 0 0
8:35 am 08:35 Mostly Cloudy with Mist and Fog 71 21.8 69 20.8 94 94 NE 8 13 29.94 1014 3 4.82802 0 0
8:55 am 08:55 Partly Cloudy with Mist and Fog 72 22 69 20.7 92 92 NE 10 17 29.94 1014 4 6.43736 0 0
9:15 am 09:15 Mostly Cloudy with Mist and Fog 73 22.5 70 20.9 91 91 NE 9 15 29.94 1014 5 8.0467 0 0
9:35 am 09:35 Partly Cloudy 74 23.3 69 20.6 85 85 NE 8 13 29.94 1014 10 16.0934 0 0
9:55 am 09:55 Sunny 75 23.7 69 20.6 83 83 ENE 8 13 29.91 1013 10 16.0934 0 0
10:15 am 10:15 Sunny 76 24.2 70 20.9 82 82 ENE 7 11 29.91 1013 10 16.0934 0 0
10:35 am 10:35 Sunny 76 24.6 69 20.7 79 79 ENE 8 13 29.91 1013 10 16.0934 0 0
10:55 am 10:55 Partly Cloudy 78 25.4 70 21.1 77 77 ENE 10 17 29.91 1013 10 16.0934 0 0
11:15 am 11:15 Partly Cloudy 78 25.6 70 20.9 75 75 ENE 10 17 29.91 1013 10 16.0934 0 0
11:35 am 11:35 Partly Cloudy 78 25.3 69 20.3 74 74 E 8 13 29.91 1013 10 16.0934 0 0
11:55 am 11:55 Mostly Cloudy 80 26.5 69 20.5 70 70 E 9 15 29.91 1013 10 16.0934 0 0
12:15 pm 12:15 Partly Cloudy 79 26.3 69 20.3 70 70 E 7 11 29.91 1013 10 16.0934 0 0
12:35 pm 12:35 Mostly Cloudy 80 26.5 68 20.2 68 68 ESE 8 13 29.91 1013 10 16.0934 0 0
12:55 pm 12:55 Mostly Cloudy 80 26.7 69 20.6 69 69 ESE 10 17 29.91 1013 10 16.0934 0 0
1:15 pm 13:15 Partly Cloudy 80 26.6 67 19.3 64 64 ESE 10 17 29.91 1013 10 16.0934 0 0
1:35 pm 13:35 Mostly Cloudy 80 26.7 67 19.6 65 65 SE 8 13 29.91 1013 10 16.0934 0 0
1:55 pm 13:55 Partly Cloudy 81 27.4 67 19.7 63 63 E 7 11 29.91 1013 10 16.0934 0 0
2:15 pm 14:15 Sunny 82 28 67 19.3 59 59 E 8 13 29.88 1012 10 16.0934 0 0
2:35 pm 14:35 Sunny 83 28.2 66 19.1 58 58 SE 8 13 29.88 1012 10 16.0934 0 0
2:55 pm 14:55 Sunny 83 28.5 67 19.3 57 57 ESE 8 13 29.88 1012 10 16.0934 0 0
3:15 pm 15:15 Sunny 83 28.5 67 19.4 58 58 SE 8 13 29.88 1012 10 16.0934 0 0
3:35 pm 15:35 Sunny 83 28.5 67 19.3 57 57 SE 10 17 29.88 1012 10 16.0934 0 0
3:55 pm 15:55 Sunny 84 29 66 18.8 54 54 SE 9 15 29.85 1011 10 16.0934 0 0
4:15 pm 16:15 Sunny 84 29 66 19 55 55 SE 10 17 29.85 1011 10 16.0934 0 0
4:35 pm 16:35 Sunny 83 28.5 66 18.9 56 56 SE 9 15 29.85 1011 10 16.0934 0 0
4:55 pm 16:55 Sunny 84 28.9 66 19 55 55 ESE 9 15 29.85 1011 10 16.0934 0 0
5:15 pm 17:15 Sunny 85 29.5 64 17.9 50 50 SE 7 11 29.85 1011 10 16.0934 0 0
5:35 pm 17:35 Sunny 85 29.5 64 18 50 50 SE 7 11 29.85 1011 10 16.0934 0 0
5:55 pm 17:55 Sunny 85 29.5 66 18.8 53 53 SE 8 13 29.85 1011 10 16.0934 0 0
6:15 pm 18:15 Sunny 85 29.3 67 19.3 55 55 SE 9 15 29.85 1011 10 16.0934 0 0
6:35 pm 18:35 Sunny 84 29.1 66 19.1 55 55 SE 6 9 29.83 1010 10 16.0934 0 0
6:55 pm 18:55 Sunny 84 29.1 65 18.1 52 52 SE 7 11 29.83 1010 10 16.0934 0 0
7:15 pm 19:15 Sunny 82 27.9 65 18.6 57 57 SE 6 9 29.83 1010 10 16.0934 0 0
7:35 pm 19:35 Sunny 81 27.2 67 19.5 63 63 ESE 3 6 29.83 1010 10 16.0934 0 0
7:55 pm 19:55 Sunny 80 26.5 68 19.9 67 67 E 3 6 29.83 1010 10 16.0934 0 0
8:15 pm 20:15 Sunny 79 26.2 68 19.8 68 68 ESE 3 6 29.85 1011 10 16.0934 0 0
8:35 pm 20:35 Sunny 78 25.7 68 20.2 72 72 Calm 29.85 1011 10 16.0934 0 0
8:55 pm 20:55 Sunny 77 25 69 20.6 77 77 ESE 5 7 29.85 1011 10 16.0934 0 0
9:15 pm 21:15 Clear 76 24.5 69 20.5 78 78 SE 6 9 29.85 1011 10 16.0934 0 0
9:35 pm 21:35 Clear 76 24.5 69 20.6 79 79 SE 7 11 29.85 1011 10 16.0934 0 0
9:55 pm 21:55 Clear 76 24.5 70 20.9 80 80 SE 6 9 29.85 1011 10 16.0934 0 0
10:15 pm 22:15 Clear 76 24.5 69 20.6 79 79 SSE 5 7 29.85 1011 10 16.0934 0 0
10:35 pm 22:35 Clear 75 24 69 20.3 80 80 SE 3 6 29.83 1010 10 16.0934 0 0
10:55 pm 22:55 Clear 74 23.1 69 20.5 85 85 Calm 29.83 1010 10 16.0934 0 0
11:15 pm 23:15 Clear 74 23.5 69 20.5 83 83 SSE 3 6 29.83 1010 10 16.0934 0 0
11:35 pm 23:35 Clear 74 23.2 69 20.5 85 85 Calm 29.85 1011 10 16.0934 0 0
11:55 pm 23:55 Clear 74 23.2 69 20.5 85 85 SSE 6 9 29.85 1011 10 16.0934 0 0

Powered by AerisWeather